PBO Station Position Time Series. Reference Frame : NAM14
Format Version,1.1.0
4-character ID,QAAR
Station name,Quaarsuut
Begin Date, 2007-08-29
End Date, 2019-10-07
Release Date, 2019-10-08
Reference position, 70.7404055014 North Latitude, -52.6883734313 East Longitude, 53.04463 meters elevation,
Date, North (mm), East (mm), Vertical (mm), North Std. Deviation (mm), East Std. Deviation (mm),              Vertical Std. Deviation (mm), Quality,
2007-08-29,0.00, 0.00, 0.00, 3.39, 2.35, 13.85, repro,
2007-08-30,-0.25, 2.08, -14.50, 2.27, 1.64, 9.37, repro,
2007-08-31,-1.80, 1.81, -12.37, 2.29, 1.61, 9.33, repro,
2007-09-01,-1.15, 3.41, -21.08, 2.33, 1.62, 9.54, repro,
2007-09-02,0.56, 3.03, -11.74, 2.53, 1.72, 10.17, repro,
2007-09-03,1.11, 1.68, -10.00, 2.48, 1.80, 10.69, repro,
2007-09-04,0.53, 1.90, -0.35, 2.25, 1.60, 9.45, repro,
2007-09-05,-1.20, 1.45, -12.14, 2.48, 1.77, 10.36, repro,
2007-09-06,-0.95, 2.03, -14.99, 2.30, 1.60, 9.52, repro,
2007-09-07,-0.34, 1.20, -12.32, 2.46, 1.70, 9.98, repro,
2007-09-08,0.80, 0.15, -7.28, 2.37, 1.71, 9.75, repro,
2007-09-09,-0.33, 1.68, -15.27, 2.22, 1.56, 9.13, repro,
2007-09-10,-0.17, 1.00, -3.21, 2.21, 1.57, 9.06, repro,
2007-09-11,0.88, 1.18, -8.13, 2.30, 1.67, 9.80, repro,
2007-09-12,5.72, 2.19, 7.08, 2.24, 1.56, 9.20, repro,
2007-09-13,1.42, 2.81, -8.30, 2.16, 1.54, 8.90, repro,
2007-09-14,-0.14, 2.03, -6.86, 2.20, 1.55, 9.02, repro,
2007-09-15,-0.55, 2.50, -8.04, 2.27, 1.59, 9.44, repro,
2007-09-16,2.32, 2.19, -6.33, 2.19, 1.55, 9.00, repro,
2007-09-17,0.73, -0.31, -4.19, 2.22, 1.56, 9.16, repro,
2007-09-18,0.90, 1.20, -2.35, 2.19, 1.52, 9.01, repro,
2007-09-19,-0.25, 0.03, -8.55, 2.14, 1.51, 8.71, repro,
2007-09-20,0.35, 1.11, -8.05, 2.17, 1.54, 8.74, repro,
2007-09-21,2.09, 0.70, -12.73, 2.23, 1.58, 9.00, repro,
2007-09-22,0.26, 1.27, -12.11, 2.40, 1.75, 9.53, repro,
2007-09-23,0.44, 1.84, -12.08, 2.43, 1.72, 9.82, repro,
2007-09-24,2.07, 1.49, -15.28, 2.42, 1.78, 9.83, repro,
2007-09-25,0.40, 2.68, -8.69, 2.28, 1.62, 9.01, repro,
2007-09-26,0.17, 0.35, -4.54, 2.14, 1.50, 8.66, repro,
2007-09-27,-0.09, 1.61, -12.36, 2.24, 1.57, 8.96, repro,
2007-09-28,0.51, 0.14, -7.37, 2.52, 1.69, 9.80, repro,
2007-09-29,0.55, 1.73, -8.23, 2.56, 1.81, 10.26, repro,
2007-09-30,-0.08, 0.38, -5.48, 2.39, 1.66, 9.88, repro,
2007-10-01,-0.06, 0.57, -10.45, 2.91, 1.93, 11.68, repro,
2007-10-02,-2.81, 0.46, -4.52, 2.28, 1.60, 9.31, repro,
2007-10-03,-0.16, 1.50, -15.76, 2.70, 1.84, 10.62, repro,
2007-10-04,0.06, 2.01, -17.11, 2.63, 1.79, 10.95, repro,
2007-10-05,1.82, 1.85, 0.89, 2.28, 1.59, 9.27, repro,
2007-10-06,-1.48, -0.69, -17.74, 2.22, 1.59, 8.97, repro,
2007-10-07,1.25, 0.55, -11.09, 2.22, 1.53, 8.99, repro,
2007-10-08,-0.99, 1.90, -19.56, 2.38, 1.60, 9.64, repro,
2007-10-09,1.28, 1.81, -18.48, 2.50, 1.72, 10.01, repro,
2007-10-10,1.60, 1.30, -8.13, 2.33, 1.71, 9.92, repro,
2007-10-11,-1.80, -0.26, -12.32, 2.20, 1.54, 8.98, repro,
2007-10-12,-0.25, -1.06, -11.48, 2.32, 1.63, 9.22, repro,
2007-10-13,0.96, 2.34, -7.73, 2.19, 1.51, 8.79, repro,
2007-10-14,-1.49, 1.63, -5.85, 2.36, 1.59, 9.55, repro,
2007-10-15,-3.64, 1.83, -12.10, 2.31, 1.63, 9.08, repro,
2007-10-16,0.34, 0.82, -5.16, 2.31, 1.61, 9.32, repro,
2007-10-17,-3.46, 0.53, -16.11, 2.19, 1.52, 8.85, repro,
2007-10-18,-0.95, 0.06, -7.84, 2.38, 1.63, 9.50, repro,
2007-10-19,1.37, 0.25, 4.71, 2.62, 1.90, 10.95, repro,
2007-10-20,1.64, 0.34, -3.36, 2.46, 1.69, 9.95, repro,
2007-10-21,-0.62, 1.18, -8.98, 2.25, 1.57, 9.16, repro,
2007-10-22,-1.23, 1.28, -4.68, 2.22, 1.58, 9.07, repro,
2007-10-23,2.14, -0.26, 1.41, 2.31, 1.63, 9.47, repro,
2007-10-24,1.53, 2.36, -3.98, 2.28, 1.60, 9.43, repro,
2007-10-25,0.05, 2.66, -10.77, 2.37, 1.70, 9.69, repro,
2007-10-26,2.08, 1.37, -13.66, 2.62, 1.93, 10.87, repro,
2007-10-27,0.42, 1.28, -8.53, 2.35, 1.68, 9.60, repro,
2007-10-28,3.56, 1.92, -1.87, 2.34, 1.65, 9.53, repro,
2007-10-29,1.71, 2.50, -7.97, 2.40, 1.68, 9.84, repro,
2007-10-30,0.31, 2.00, -14.68, 2.32, 1.64, 9.49, repro,
2007-10-31,1.38, 1.29, -10.98, 2.20, 1.56, 9.03, repro,
2007-11-01,1.73, 1.67, -13.75, 2.26, 1.57, 8.95, repro,
2007-11-02,0.86, 0.71, -14.24, 2.16, 1.50, 8.67, repro,
2007-11-03,0.75, 1.16, -12.06, 2.18, 1.52, 8.72, repro,
2007-11-04,2.02, 1.34, -8.94, 2.20, 1.57, 8.99, repro,
2007-11-05,2.85, 0.73, -8.78, 2.15, 1.50, 8.62, repro,
2007-11-06,1.32, -0.22, -11.93, 2.23, 1.59, 8.94, repro,
2007-11-07,0.46, 0.41, -19.37, 2.13, 1.49, 8.46, repro,
2007-11-08,-1.10, 2.00, -21.55, 2.18, 1.53, 8.88, repro,
2007-11-09,-0.21, 1.97, -9.69, 2.24, 1.57, 8.97, repro,
2007-11-10,-2.31, 2.73, -16.45, 2.26, 1.57, 9.02, repro,
2007-11-11,-0.84, 1.47, -13.21, 2.17, 1.52, 8.75, repro,
2007-11-12,0.20, 1.95, -9.77, 2.13, 1.51, 8.53, repro,
2007-11-13,0.05, -0.45, -0.93, 2.41, 1.73, 10.24, repro,
2007-11-14,0.25, 1.25, -10.42, 2.51, 1.82, 10.03, repro,
2007-11-15,-0.56, 0.80, -9.25, 2.58, 1.95, 10.44, repro,
2007-11-16,-2.88, 2.67, -9.13, 7.62, 4.34, 31.24, repro,
2007-11-21,-6.97, 0.98, -30.91, 3.63, 2.89, 15.56, repro,
2007-11-22,-8.70, -1.79, -30.01, 2.41, 1.68, 9.84, repro,
2007-11-23,2.19, 1.64, -7.73, 2.52, 1.79, 9.78, repro,
2007-11-24,-2.55, 1.34, -17.71, 2.55, 1.74, 10.08, repro,
2007-11-25,0.30, 2.52, -7.16, 2.60, 1.80, 10.32, repro,
2007-11-26,-0.62, 1.81, -6.29, 2.48, 1.78, 10.15, repro,
2007-11-27,-0.83, 1.31, -8.52, 2.29, 1.62, 9.25, repro,
2007-11-28,-1.09, 2.72, -14.95, 2.36, 1.65, 9.24, repro,
2007-11-29,0.11, 0.88, -9.39, 2.33, 1.67, 9.26, repro,
2007-11-30,1.07, 0.84, -12.42, 2.34, 1.66, 9.35, repro,
2007-12-01,-0.03, 1.09, -21.92, 2.32, 1.63, 9.25, repro,
2007-12-02,1.03, 2.19, -19.58, 2.24, 1.58, 9.02, repro,
2007-12-03,-0.36, 0.68, -14.49, 2.25, 1.60, 9.02, repro,
2007-12-04,-0.85, 1.96, -9.27, 2.19, 1.55, 8.78, repro,
2007-12-05,1.04, 1.05, -1.65, 2.22, 1.56, 8.92, repro,
2007-12-06,-1.23, 0.83, -7.30, 4.67, 3.32, 17.22, repro,
2007-12-07,-0.13, -1.00, -11.03, 3.22, 2.29, 13.44, repro,
2007-12-08,-1.06, -0.10, -18.85, 2.25, 1.60, 9.05, repro,
2007-12-09,0.02, -1.65, -8.63, 7.32, 5.38, 28.17, repro,
2007-12-11,-0.21, 0.21, -15.14, 4.36, 3.23, 19.00, repro,
2007-12-12,-1.59, 0.68, -22.77, 2.50, 1.86, 9.94, repro,
2007-12-13,-0.74, 0.54, -9.50, 2.54, 1.78, 10.36, repro,
2007-12-14,-0.63, 2.34, -7.62, 2.33, 1.67, 9.48, repro,
2007-12-15,0.24, 0.29, -4.50, 2.31, 1.65, 9.29, repro,
2007-12-16,-0.25, 1.25, -11.43, 2.31, 1.67, 9.45, repro,
2007-12-17,-0.23, 1.75, -17.55, 2.49, 1.81, 10.08, repro,
2007-12-18,1.89, 0.25, -12.75, 2.65, 1.92, 10.50, repro,
2007-12-19,-1.65, 1.25, -11.41, 2.49, 1.81, 10.28, repro,
2007-12-20,-3.32, -0.40, -21.10, 2.55, 1.86, 10.46, repro,
2007-12-21,0.25, 0.25, -15.12, 2.50, 1.86, 9.79, repro,
2007-12-22,-0.89, -0.79, -11.04, 2.35, 1.70, 9.65, repro,
2007-12-23,-1.72, 0.80, -7.65, 2.36, 1.70, 9.42, repro,
2007-12-24,-1.04, -0.19, -7.90, 2.24, 1.59, 9.03, repro,
2007-12-25,0.32, 0.64, 1.33, 2.24, 1.59, 9.02, repro,
2007-12-26,-0.95, -0.53, -8.68, 2.25, 1.56, 8.96, repro,
2007-12-27,-0.10, 0.40, -7.85, 2.28, 1.61, 9.10, repro,
2007-12-28,-3.06, -0.03, -12.27, 2.32, 1.61, 9.15, repro,
2007-12-29,-2.12, 1.00, -19.97, 2.23, 1.57, 8.86, repro,
2007-12-30,-1.64, 0.10, -15.78, 2.30, 1.60, 9.19, repro,
2007-12-31,1.36, -0.06, -17.17, 2.18, 1.55, 8.83, repro,
2008-01-01,1.69, 0.31, -12.39, 2.17, 1.55, 8.80, repro,
2008-01-02,1.58, 1.45, -13.14, 2.17, 1.54, 8.68, repro,
2008-01-03,-0.05, 2.11, -9.73, 2.13, 1.51, 8.66, repro,
2008-01-04,0.82, 0.93, -8.23, 2.18, 1.52, 8.77, repro,
2008-01-05,-0.65, 1.33, -3.52, 2.43, 1.72, 10.08, repro,
2008-01-06,-0.95, 0.37, -9.63, 2.49, 1.70, 10.03, repro,
2008-01-07,-3.44, 0.17, -18.90, 2.53, 1.78, 9.94, repro,
2008-01-08,-1.53, 0.62, -18.13, 2.40, 1.66, 9.67, repro,
2008-01-09,-0.24, 1.88, -11.17, 2.40, 1.72, 9.54, repro,
2008-01-10,-3.37, 1.66, -16.22, 2.23, 1.57, 8.93, repro,
2008-01-11,-4.00, 0.43, -16.63, 2.17, 1.51, 8.92, repro,
2008-01-12,-0.28, -0.68, -12.76, 2.24, 1.55, 8.84, repro,
2008-01-13,0.58, 1.23, -15.77, 2.41, 1.59, 9.41, repro,
2008-01-14,-0.51, -0.97, -12.20, 2.67, 1.83, 11.17, repro,
2008-01-15,-0.10, 0.07, -18.41, 2.49, 1.76, 10.17, repro,
2008-01-16,-0.85, 1.11, -16.29, 2.60, 1.90, 10.59, repro,
2008-01-17,-1.30, 0.70, -12.95, 2.63, 1.88, 10.96, repro,
2008-01-18,1.55, -0.33, -10.26, 2.60, 1.84, 10.51, repro,
2008-01-19,1.41, -0.38, -13.93, 2.73, 1.95, 11.07, repro,
2008-01-20,2.38, 1.21, -13.93, 2.28, 1.57, 9.19, repro,
2008-01-21,-3.49, 4.13, -22.41, 2.30, 1.64, 9.35, repro,
2008-01-22,-1.19, 0.96, -15.32, 2.32, 1.63, 9.19, repro,
2008-01-23,0.67, -1.39, -9.74, 2.29, 1.59, 9.03, repro,
2008-01-24,2.45, 0.15, -6.37, 2.53, 1.77, 10.02, repro,
2008-01-25,2.67, -0.69, -4.61, 2.53, 1.76, 10.43, repro,
2008-01-26,-0.31, 1.22, -11.83, 2.33, 1.60, 9.48, repro,
2008-01-27,0.53, 1.83, -17.38, 2.29, 1.61, 8.96, repro,
2008-01-28,-0.61, 1.44, -16.11, 2.34, 1.61, 9.20, repro,
2008-01-29,-0.30, 1.18, -6.64, 2.42, 1.62, 10.05, repro,
2008-01-30,2.01, 1.48, -16.08, 2.36, 1.68, 9.50, repro,
2008-01-31,0.37, 1.75, -25.52, 2.34, 1.65, 9.34, repro,
2008-02-01,0.09, 0.98, -13.72, 2.73, 1.84, 11.24, repro,
2008-02-02,1.18, 1.45, -10.46, 2.34, 1.71, 10.01, repro,
2008-02-03,2.80, 1.72, -17.49, 2.35, 1.68, 9.90, repro,
2008-02-04,1.10, -0.24, -20.42, 2.33, 1.65, 9.50, repro,
2008-02-05,1.74, -1.05, -18.52, 2.28, 1.61, 9.56, repro,
2008-02-06,2.65, -1.12, -12.29, 2.39, 1.70, 9.78, repro,
2008-02-07,3.30, -0.06, -8.20, 2.36, 1.65, 9.45, repro,
2008-02-08,0.91, 1.96, -14.15, 2.24, 1.56, 9.05, repro,
2008-02-09,1.55, 1.11, -19.29, 2.19, 1.53, 8.73, repro,
2008-02-10,4.09, 2.09, -17.89, 2.27, 1.60, 9.22, repro,
2008-02-11,5.49, 2.33, -18.82, 2.52, 1.76, 10.43, repro,
2008-02-12,5.33, 2.04, -17.98, 2.56, 1.74, 10.54, repro,
2008-02-13,2.22, 3.11, -26.24, 2.31, 1.59, 9.45, repro,
2008-02-14,5.02, 0.39, -20.86, 2.43, 1.69, 9.75, repro,
2008-02-15,4.40, 2.73, -15.07, 2.37, 1.70, 9.54, repro,
2008-02-16,3.76, 3.23, -10.40, 2.36, 1.68, 9.48, repro,
2008-02-17,2.98, 2.72, -16.78, 2.22, 1.54, 8.87, repro,
2008-02-18,4.79, 2.99, -12.06, 2.26, 1.61, 9.47, repro,
2008-02-19,4.25, 3.31, -14.28, 2.61, 1.83, 10.95, repro,
2008-02-20,3.82, 2.07, -18.70, 2.28, 1.58, 9.08, repro,
2008-02-21,3.56, 1.29, -5.31, 2.29, 1.65, 9.30, repro,
2008-02-22,1.49, 2.27, -8.02, 2.18, 1.54, 8.75, repro,
2008-02-23,3.07, 1.94, -5.99, 2.19, 1.53, 8.74, repro,
2008-02-24,4.66, 2.44, -8.83, 2.16, 1.52, 8.71, repro,
2008-02-25,4.88, 2.85, -13.88, 2.17, 1.50, 8.62, repro,
2008-02-26,3.72, 1.93, -8.35, 2.22, 1.53, 8.84, repro,
2008-02-27,3.22, 2.14, -10.36, 2.30, 1.59, 9.05, repro,
2008-02-28,2.71, 0.43, -22.42, 2.24, 1.59, 9.01, repro,
2008-02-29,2.62, 2.19, -20.08, 2.44, 1.76, 10.32, repro,
2008-03-01,-0.50, 1.30, -23.72, 2.62, 1.92, 10.78, repro,
2008-03-02,0.67, 1.57, -23.88, 2.53, 1.67, 10.16, repro,
2008-03-03,1.36, 1.01, -22.22, 2.35, 1.57, 9.23, repro,
2008-03-04,2.90, 2.33, -14.66, 2.19, 1.52, 8.81, repro,
2008-03-05,4.92, 1.16, -15.98, 2.40, 1.66, 9.96, repro,
2008-03-06,3.26, 1.34, -7.07, 2.18, 1.51, 8.88, repro,
2008-03-07,1.06, 1.11, -18.35, 2.22, 1.52, 8.93, repro,
2008-03-08,2.88, 2.44, -9.81, 2.31, 1.59, 9.47, repro,
2008-03-09,-0.85, 3.22, -17.63, 2.91, 1.91, 12.63, repro,
2008-03-10,3.05, 2.09, -4.14, 2.47, 1.68, 10.13, repro,
2008-03-11,1.23, 0.83, -10.08, 2.61, 1.84, 11.42, repro,
2008-03-12,-0.55, 1.05, -19.25, 2.48, 1.68, 9.62, repro,
2008-03-13,-1.53, 2.16, -24.90, 2.43, 1.78, 9.91, repro,
2008-03-14,-1.89, 1.60, -25.87, 2.46, 1.64, 9.88, repro,
2008-03-15,-2.20, 0.52, -23.18, 2.31, 1.59, 9.32, repro,
2008-03-16,0.44, 1.46, -21.19, 2.23, 1.54, 8.95, repro,
2008-03-17,3.04, 0.29, -26.21, 2.54, 1.76, 10.29, repro,
2008-03-18,-0.03, 1.03, -17.19, 2.47, 1.68, 9.53, repro,
2008-03-19,1.71, 0.99, -13.26, 2.42, 1.61, 9.48, repro,
2008-03-20,0.76, 2.11, -19.28, 2.42, 1.61, 9.68, repro,
2008-03-21,2.39, 0.99, -13.55, 2.33, 1.58, 9.30, repro,
2008-03-22,-1.62, 1.35, -14.59, 2.28, 1.58, 9.04, repro,
2008-03-23,-0.26, 2.58, -14.11, 2.28, 1.59, 9.31, repro,
2008-03-24,0.01, 0.95, -12.53, 2.19, 1.51, 8.69, repro,
2008-03-25,0.94, 2.27, -19.47, 2.20, 1.51, 8.93, repro,
2008-03-26,-0.85, 2.31, -22.94, 2.32, 1.63, 9.37, repro,
2008-03-27,-2.08, 0.90, -20.26, 2.82, 1.87, 11.78, repro,
2008-03-28,-1.30, 0.99, -23.67, 2.53, 1.72, 9.93, repro,
2008-03-29,-0.01, 2.69, -21.57, 2.35, 1.63, 9.54, repro,
2008-03-30,-0.55, 0.90, -27.69, 2.46, 1.64, 9.42, repro,
2008-03-31,-0.96, 2.46, -22.54, 2.38, 1.57, 9.06, repro,
2008-04-01,0.08, 2.33, -27.09, 2.17, 1.50, 8.55, repro,
2008-04-02,0.43, 3.50, -32.17, 2.28, 1.56, 9.02, repro,
2008-04-03,-0.38, 1.59, -24.76, 2.16, 1.50, 8.69, repro,
2008-04-04,-0.79, 2.64, -30.30, 2.43, 1.60, 9.29, repro,
2008-04-05,-2.83, 3.44, -34.91, 2.32, 1.61, 9.32, repro,
2008-04-06,-4.36, 1.95, -38.49, 2.55, 1.85, 10.32, repro,
2008-04-07,-0.50, 3.19, -28.10, 2.43, 1.66, 9.79, repro,
2008-04-08,-2.27, 1.87, -29.77, 2.51, 1.68, 10.12, repro,
2008-04-09,-1.76, 2.61, -25.77, 2.41, 1.69, 9.77, repro,
2008-04-10,-1.00, 0.27, -24.32, 2.49, 1.69, 9.91, repro,
2008-04-11,-2.46, 2.70, -24.94, 2.28, 1.65, 9.27, repro,
2008-04-12,-0.33, 2.36, -26.16, 2.25, 1.60, 9.15, repro,
2008-04-13,1.63, 2.55, -15.22, 2.34, 1.66, 9.56, repro,
2008-04-14,-2.03, 2.60, -21.38, 2.12, 1.49, 8.59, repro,
2008-04-15,-1.70, 1.75, -20.97, 2.30, 1.62, 9.28, repro,
2008-04-16,-4.67, 1.10, -16.65, 2.28, 1.61, 9.04, repro,
2008-04-17,-2.38, 1.00, -19.47, 2.34, 1.71, 9.70, repro,
2008-04-18,-3.31, 1.55, -29.08, 2.20, 1.55, 8.81, repro,
2008-04-19,-1.91, 1.62, -28.99, 2.32, 1.61, 9.45, repro,
2008-04-20,0.61, 1.50, -29.89, 2.25, 1.57, 9.13, repro,
2008-04-21,-1.59, 2.67, -29.51, 2.18, 1.52, 8.76, repro,
2008-04-22,1.03, 2.56, -25.93, 2.14, 1.51, 8.68, repro,
2008-04-23,2.46, 2.33, -25.80, 2.48, 1.70, 10.26, repro,
2008-04-24,0.62, 2.85, -27.51, 2.66, 1.92, 10.84, repro,
2008-04-25,-1.48, 1.86, -31.49, 2.28, 1.62, 9.32, repro,
2008-04-26,-1.73, 0.99, -28.63, 2.46, 1.73, 10.08, repro,
2008-04-27,-0.47, 2.46, -34.48, 2.26, 1.59, 9.10, repro,
2008-04-28,-0.16, 2.79, -34.45, 2.54, 1.77, 10.60, repro,
2008-04-29,1.01, 2.36, -21.90, 2.37, 1.66, 9.67, repro,
2008-04-30,2.29, 2.90, -9.18, 2.25, 1.59, 9.05, repro,
2008-05-01,-2.35, 2.56, -37.78, 2.21, 1.57, 9.16, repro,
2008-05-02,-1.00, 3.14, -36.54, 2.29, 1.58, 9.37, repro,
2008-05-03,-0.17, 2.60, -24.11, 2.31, 1.65, 9.32, repro,
2008-05-04,-0.19, 2.55, -30.10, 2.35, 1.65, 9.56, repro,
2008-05-05,-1.74, 4.15, -28.41, 2.32, 1.61, 9.42, repro,
2008-05-06,-2.47, 0.63, -35.72, 2.47, 1.71, 10.09, repro,
2008-05-07,-3.19, 1.39, -28.10, 2.25, 1.54, 9.16, repro,
2008-05-08,-3.04, 1.58, -32.90, 2.19, 1.52, 8.99, repro,
2008-05-09,-2.31, 2.03, -26.97, 2.17, 1.53, 8.80, repro,
2008-05-10,-2.52, 1.99, -29.18, 2.19, 1.51, 8.86, repro,
2008-05-11,-2.10, 2.45, -22.88, 2.19, 1.51, 8.91, repro,
2008-05-12,-5.74, 3.33, -25.44, 2.19, 1.51, 8.90, repro,
2008-05-13,-2.21, 2.73, -25.29, 2.21, 1.56, 9.17, repro,
2008-05-14,-2.10, 1.36, -28.60, 2.20, 1.51, 8.94, repro,
2008-05-15,-4.12, 1.42, -35.44, 2.15, 1.50, 8.78, repro,
2008-05-16,-2.34, 3.51, -34.94, 2.13, 1.51, 8.72, repro,
2008-05-17,-1.40, 1.95, -28.44, 2.13, 1.50, 8.65, repro,
2008-05-18,-2.47, 2.77, -29.74, 2.12, 1.49, 8.59, repro,
2008-05-19,0.62, 2.25, -27.51, 2.19, 1.55, 8.98, repro,
2008-05-20,-1.45, 2.98, -20.87, 2.30, 1.66, 9.63, repro,
2008-05-21,-1.70, 1.70, -26.29, 2.36, 1.61, 9.58, repro,
2008-05-22,-1.06, 2.82, -26.02, 2.43, 1.69, 9.65, repro,
2008-05-23,-2.49, 3.20, -28.86, 2.49, 1.73, 9.98, repro,
2008-05-24,-2.21, 4.24, -28.51, 2.30, 1.66, 9.60, repro,
2008-05-25,-1.03, 4.46, -22.87, 2.30, 1.65, 9.20, repro,
2008-05-26,0.05, 4.38, -21.49, 2.22, 1.58, 9.01, repro,
2008-05-27,0.35, 3.79, -24.27, 2.24, 1.59, 8.92, repro,
2008-05-28,2.19, 1.81, -19.26, 2.47, 1.71, 10.11, repro,
2008-05-29,-9.33, 6.19, -43.14, 2.22, 1.56, 8.99, repro,
2008-05-30,-8.23, 8.08, -20.24, 2.33, 1.59, 9.41, repro,
2008-05-31,2.90, 2.29, -21.58, 2.29, 1.63, 9.47, repro,
2008-06-01,2.67, 2.92, -24.90, 2.41, 1.69, 9.67, repro,
2008-06-02,2.11, 2.70, -20.39, 2.31, 1.60, 9.41, repro,
2008-06-03,3.32, 3.54, -24.42, 2.29, 1.62, 9.20, repro,
2008-06-04,-0.56, 4.79, -24.51, 2.17, 1.50, 8.84, repro,
2008-06-05,1.20, 4.35, -23.75, 2.18, 1.52, 9.05, repro,
2008-06-06,-0.72, 4.34, -29.52, 2.27, 1.57, 9.21, repro,
2008-06-07,-1.09, 5.69, -14.92, 2.44, 1.69, 9.89, repro,
2008-06-08,5.72, 5.69, -3.26, 2.27, 1.63, 9.19, repro,
2008-06-09,2.50, 4.77, -15.33, 2.20, 1.53, 8.99, repro,
2008-06-10,2.49, 4.42, -15.07, 2.29, 1.59, 9.48, repro,
2008-06-11,2.30, 3.64, -18.03, 2.15, 1.51, 8.77, repro,
2008-06-12,-1.01, 3.60, -29.69, 2.20, 1.57, 9.02, repro,
2008-06-13,1.87, 4.26, -36.65, 2.13, 1.54, 8.81, repro,
2008-06-14,1.80, 2.89, -21.27, 2.18, 1.54, 9.21, repro,
2008-06-15,2.60, 3.75, -23.85, 2.40, 1.60, 9.85, repro,
2008-06-16,2.56, 4.06, -22.31, 2.39, 1.67, 9.61, repro,
2008-06-17,0.21, 4.35, -24.97, 2.45, 1.65, 9.67, repro,
2008-06-18,5.01, 6.38, -31.36, 2.26, 1.59, 9.41, repro,
2008-06-19,1.44, 3.44, -28.04, 2.33, 1.65, 9.58, repro,
2008-06-20,0.67, 3.17, -28.86, 2.30, 1.60, 9.18, repro,
2008-06-21,0.88, 2.93, -33.90, 2.21, 1.58, 8.93, repro,
2008-06-22,0.11, 4.67, -32.48, 2.16, 1.54, 8.98, repro,
2008-06-23,2.77, 3.60, -24.17, 2.13, 1.54, 8.77, repro,
2008-06-24,2.02, 4.07, -28.71, 2.13, 1.52, 8.66, repro,
2008-06-25,2.77, 5.88, -30.21, 2.35, 1.72, 9.84, repro,
2008-06-26,1.29, 3.46, -26.00, 2.43, 1.73, 9.57, repro,
2008-06-27,2.80, 4.79, -28.64, 2.35, 1.60, 9.64, repro,
2008-06-28,1.49, 3.24, -30.69, 2.24, 1.59, 9.14, repro,
2008-06-29,2.56, 2.72, -27.92, 2.24, 1.58, 9.21, repro,
2008-06-30,3.37, 3.99, -28.87, 2.15, 1.55, 8.86, repro,
2008-07-01,2.61, 4.76, -31.08, 2.13, 1.50, 8.70, repro,
2008-07-02,1.49, 3.33, -28.01, 2.15, 1.51, 8.76, repro,
2008-07-03,2.50, 3.13, -25.90, 2.13, 1.51, 8.68, repro,
2008-07-04,3.66, 4.30, -21.04, 2.14, 1.51, 8.77, repro,
2008-07-05,1.71, 3.29, -28.74, 2.16, 1.55, 8.82, repro,
2008-07-06,2.71, 4.01, -23.55, 2.16, 1.53, 8.85, repro,
2008-07-07,-0.11, 4.66, -24.24, 2.13, 1.50, 8.68, repro,
2008-07-08,1.74, 3.67, -16.30, 2.12, 1.50, 8.62, repro,
2008-07-09,1.73, 2.95, -14.03, 2.13, 1.51, 8.70, repro,
2008-07-10,2.07, 2.55, -17.58, 2.17, 1.54, 9.08, repro,
2008-07-11,1.04, 1.85, -21.07, 2.18, 1.55, 9.19, repro,
2008-07-12,1.95, 0.99, -16.36, 2.37, 1.74, 10.02, repro,
2008-07-13,1.47, 2.61, -12.84, 2.37, 1.63, 9.50, repro,
2008-07-14,1.45, 4.24, -11.15, 2.30, 1.66, 9.62, repro,
2008-07-15,2.05, 4.56, -14.26, 2.18, 1.58, 8.84, repro,
2008-07-16,1.23, 3.53, -15.06, 2.32, 1.60, 9.36, repro,
2008-07-17,0.53, 3.03, -20.63, 2.20, 1.55, 9.07, repro,
2008-07-18,1.21, 2.42, -16.12, 2.22, 1.59, 8.97, repro,
2008-07-19,1.15, 2.01, -13.97, 2.19, 1.56, 8.92, repro,
2008-07-20,2.28, 2.61, -9.89, 2.15, 1.51, 8.86, repro,
2008-07-21,3.55, 1.10, -19.85, 2.20, 1.58, 9.08, repro,
2008-07-22,0.79, 2.64, -19.88, 2.34, 1.67, 9.49, repro,
2008-07-23,0.68, 5.09, -7.25, 2.55, 1.74, 10.72, repro,
2008-07-24,1.08, 2.58, -13.56, 2.33, 1.60, 9.30, repro,
2008-07-25,0.29, 3.05, -18.10, 2.14, 1.56, 8.81, repro,
2008-07-26,1.73, 3.08, -15.79, 2.27, 1.64, 9.32, repro,
2008-07-27,2.24, 2.21, -11.95, 2.22, 1.59, 9.14, repro,
2008-07-28,0.78, 2.95, -17.37, 2.27, 1.60, 9.41, repro,
2008-07-29,1.29, 2.14, -15.54, 2.18, 1.54, 9.03, repro,
2008-07-30,2.45, 2.90, -28.60, 2.29, 1.59, 9.27, repro,
2008-07-31,0.30, 3.35, -14.55, 2.09, 1.53, 8.78, repro,
2008-08-01,2.42, 3.95, -11.20, 2.17, 1.54, 8.99, repro,
2008-08-02,-1.45, 3.08, -16.31, 2.13, 1.51, 8.82, repro,
2008-08-03,-0.18, 1.58, -22.60, 2.19, 1.55, 8.97, repro,
2008-08-04,0.66, 1.90, -23.00, 2.16, 1.55, 8.80, repro,
2008-08-05,0.28, 3.52, -20.27, 2.10, 1.49, 8.64, repro,
2008-08-06,-0.93, 2.74, -21.13, 2.15, 1.54, 8.80, repro,
2008-08-07,-0.05, 3.72, -15.20, 2.28, 1.60, 9.30, repro,
2008-08-08,-0.42, 1.65, -15.73, 2.21, 1.56, 9.05, repro,
2008-08-09,-1.40, 2.42, -14.86, 2.38, 1.64, 10.06, repro,
2008-08-10,-1.05, 1.52, -11.58, 2.30, 1.64, 9.56, repro,
2008-08-11,-0.04, 1.33, -11.60, 2.34, 1.64, 9.57, repro,
2008-08-12,-0.95, 0.68, -13.82, 2.26, 1.66, 9.10, repro,
2008-08-13,4.74, 6.40, 1.79, 2.23, 1.59, 9.14, repro,
2008-08-14,-0.04, 2.13, -2.83, 2.17, 1.53, 8.99, repro,
2008-08-15,-0.85, 1.88, -11.73, 2.20, 1.57, 8.92, repro,
2008-08-16,-0.49, 2.87, -9.04, 2.17, 1.54, 8.83, repro,
2008-08-17,-1.41, 2.78, -8.61, 2.29, 1.62, 9.27, repro,
2008-08-18,-0.46, 4.14, -0.54, 2.50, 1.70, 10.09, repro,
2008-08-19,-0.65, 3.27, -6.66, 2.24, 1.59, 9.28, repro,
2008-08-20,-0.92, 3.93, -8.84, 2.18, 1.53, 8.82, repro,
2008-08-21,-0.56, 1.51, -20.45, 2.23, 1.59, 9.30, repro,
2008-08-22,-1.16, 1.86, -3.03, 2.22, 1.56, 8.96, repro,
2008-08-23,-0.85, 2.28, -7.74, 2.22, 1.56, 9.06, repro,
2008-08-24,0.69, 3.07, -5.47, 2.18, 1.54, 8.80, repro,
2008-08-25,1.00, 2.39, -1.45, 2.14, 1.51, 8.77, repro,
2008-08-26,-1.49, 1.94, -8.15, 2.11, 1.50, 8.67, repro,
2008-08-27,-0.81, 1.26, -10.32, 2.17, 1.54, 8.88, repro,
2008-08-28,-1.96, 2.19, -11.66, 2.26, 1.61, 9.43, repro,
2008-08-29,0.50, 2.66, -8.49, 2.20, 1.56, 8.93, repro,
2008-08-30,0.17, 3.54, -11.79, 2.17, 1.53, 8.84, repro,
2008-08-31,1.53, 2.62, -7.36, 2.22, 1.57, 9.09, repro,
2008-09-01,0.92, 1.59, 1.52, 2.22, 1.57, 9.10, repro,
2008-09-02,3.04, 0.05, -7.09, 2.22, 1.57, 9.07, repro,
2008-09-03,0.06, 2.08, -5.56, 2.31, 1.60, 9.24, repro,
2008-09-04,1.11, 0.76, -6.49, 2.70, 1.91, 11.45, repro,
2008-09-05,0.02, 0.66, -6.21, 2.29, 1.62, 9.11, repro,
2008-09-06,0.34, 1.01, -6.26, 2.27, 1.59, 9.23, repro,
2008-09-07,2.09, 1.47, -10.07, 2.37, 1.71, 9.39, repro,
2008-09-08,0.52, 2.13, -13.14, 2.40, 1.69, 9.63, repro,
2008-09-09,0.45, 2.06, -7.15, 2.26, 1.60, 9.22, repro,
2008-09-10,0.92, 1.76, -12.87, 2.26, 1.57, 9.21, repro,
2008-09-11,0.07, 1.34, -10.92, 2.93, 2.10, 12.03, repro,
2008-09-12,0.07, 0.18, -10.45, 3.32, 2.39, 13.74, repro,
2008-09-13,0.45, 0.45, -7.25, 2.26, 1.63, 9.01, repro,
2008-09-14,2.22, 2.40, -10.99, 2.30, 1.67, 9.21, repro,
2008-09-15,4.15, 0.68, -11.39, 2.49, 1.80, 9.91, repro,
2008-09-16,-0.43, 1.02, -2.36, 2.52, 1.83, 10.09, repro,
2008-09-17,2.65, 0.68, -10.10, 2.34, 1.69, 9.31, repro,
2008-09-18,1.63, 2.26, -13.59, 2.44, 1.80, 9.85, repro,
2008-09-19,-0.13, 1.24, -11.47, 2.33, 1.67, 9.33, repro,
2008-09-20,2.15, 0.05, -12.32, 2.23, 1.61, 9.03, repro,
2008-09-21,0.34, 0.83, -16.94, 2.28, 1.69, 9.13, repro,
2008-09-22,0.56, -0.13, -11.08, 2.20, 1.58, 8.90, repro,
2008-09-23,0.68, 2.35, -15.81, 2.19, 1.60, 8.92, repro,
2008-09-24,0.63, 2.48, -9.80, 2.23, 1.62, 9.05, repro,
2008-09-25,2.98, 2.66, -13.51, 2.26, 1.64, 8.94, repro,
2008-09-26,5.09, 2.53, 0.64, 3.03, 2.37, 12.33, repro,
2008-09-27,1.39, 2.60, -5.36, 2.27, 1.65, 9.21, repro,
2008-09-28,-2.33, 2.52, -8.79, 2.24, 1.59, 8.95, repro,
2008-09-29,0.54, 2.09, -16.40, 2.20, 1.59, 8.84, repro,
2008-09-30,2.27, 2.02, -6.89, 2.24, 1.66, 9.00, repro,
2008-10-01,0.98, 1.34, -7.86, 2.41, 1.79, 9.42, repro,
2008-10-02,0.43, 0.25, -15.35, 2.78, 2.04, 11.42, repro,
2008-10-03,-1.05, 2.16, -10.77, 2.68, 1.98, 10.76, repro,
2008-10-04,-1.12, 1.31, -5.62, 2.59, 1.84, 10.64, repro,
2008-10-05,-1.12, 1.34, -7.20, 2.24, 1.66, 9.04, repro,
2008-10-06,-0.57, 2.29, -10.73, 2.27, 1.61, 9.06, repro,
2008-10-07,-0.44, 2.53, -10.57, 2.18, 1.61, 8.81, repro,
2008-10-08,-0.62, 1.50, -11.46, 2.24, 1.60, 8.94, repro,
2008-10-09,0.48, 1.13, -11.77, 2.14, 1.55, 8.73, repro,
2008-10-10,0.21, 1.10, -11.09, 2.13, 1.57, 8.68, repro,
2008-10-11,-0.64, 2.65, -14.22, 2.32, 1.70, 9.40, repro,
2008-10-12,0.02, 3.39, -11.54, 2.48, 1.83, 10.02, repro,
2008-10-13,-0.12, 2.75, -10.58, 2.23, 1.67, 9.06, repro,
2008-10-14,0.43, 1.86, -7.26, 2.31, 1.73, 9.36, repro,
2008-10-15,-0.45, 0.79, -7.71, 2.26, 1.74, 9.49, repro,
2008-10-16,2.67, 1.48, -3.72, 2.32, 1.67, 9.55, repro,
2008-10-17,0.79, 0.99, -9.35, 2.20, 1.70, 9.07, repro,
2008-10-18,2.03, 2.08, -5.46, 2.16, 1.57, 8.81, repro,
2008-10-19,-0.41, 0.29, -5.26, 2.29, 1.67, 9.34, repro,
2008-10-20,-3.05, 2.72, -12.21, 2.16, 1.58, 8.67, repro,
2008-10-21,1.37, 3.36, -5.50, 2.18, 1.59, 8.88, repro,
2008-10-22,-2.76, 1.93, -8.50, 2.30, 1.70, 9.31, repro,
2008-10-23,1.03, 1.89, -9.15, 2.21, 1.59, 8.98, repro,